Retour au catalogue

CZ-3B DEB

ActifGTO
NORAD 42465·DEBRIS·🇨🇳 China

Lancé Sep 4, 2010 depuis Xichang Satellite Launch Center

Loading…

TLE

VieillissantSource: Space-Track

Époque: Sep 14, 2026, 13:23 UTC

1 42465U 10042AG  26257.55790804  .00000121  00000-0  12924-1 0  9991
2 42465  24.6196  63.9567 7440128  53.2146 354.2353  1.87571570   897

Suivez CZ-3B DEB en temps réel avec AllMySat

Download on the App Store